Lancaster, CA

11:18 AM PDT on May 23, 2017 (GMT -0700)
Gen Fox

Weather History for KWJF - August, 2013

Change the Weather History Date:

Wednesday, August 7, 2013

  Actual Average Record
Temperature  
Mean Temperature 79 °F 82 °F  
Max Temperature 92 °F 99 °F 107 °F (1978)
Min Temperature 65 °F 66 °F 50 °F (1954)
Degree Days  
Heating Degree Days 0    
Month to date heating degree days 0  
Since 1 June heating degree days 0  
Since 1 July heating degree days 0  
Cooling Degree Days 14    
Month to date cooling degree days 106  
Year to date cooling degree days 1458  
Since 1 June cooling degree days 1200  
Growing Degree Days 28 (Base 50)    
Moisture  
Dew Point 34 °F    
Average Humidity 22    
Maximum Humidity 37    
Minimum Humidity 7    
Precipitation  
Precipitation 0.00 in 0.00 in 0.41 in (1968)
Month to date precipitation 0.00 0.02  
Year to date precipitation 1.12 5.02  
Since 1 July precipitation 0.02  
Snow  
Snow 0.00 in - 0.00 in ()
Month to date snowfall 0.0  
Since 1 June snowfall 0.0  
Since 1 July snowfall 0.0  
Snow Depth 0.00 in    
Sea Level Pressure  
Sea Level Pressure 29.97 in    
Wind  
Wind Speed 15 mph (WSW)    
Max Wind Speed 28 mph    
Max Gust Speed 36 mph    
Visibility 10 miles    
Events      
T = Trace of Precipitation, MM = Missing Value Source: NWS Daily Summary

Daily Weather History Graph

Daily Weather History Graph

Search for Another Location

Airport or City:

Trip Planner

Search our weather history database for the weather conditions in past years. The results will help you decide how hot, cold, wet, or windy it might be!

Date:

Astronomy

Aug. 07, 2013 Rise Set
Actual Time 6:07 AM PDT 7:49 PM PDT
Civil Twilight 5:40 AM PDT 8:16 PM PDT
Nautical Twilight 5:07 AM PDT 8:49 PM PDT
Astronomical Twilight 4:32 AM PDT 9:23 PM PDT
Moon 6:56 AM PDT (8/7) 8:04 PM PDT (8/7)
Length of Visible Light 14h 35m
Length of Day
13h 41m
New Moon, 1% of the Moon is Illuminated
Aug 7
New Moon
Aug 14
First Quarter
Aug 20
Full
Aug 28
Last Quarter
Sep 5
New

Hourly Weather History & Observations

Time (PDT) Temp. Dew Point Humidity Pressure Visibility Wind Dir Wind Speed Gust Speed Precip Events Conditions
12:56 AM 72.0 °F 34.0 °F 25% 29.96 in 10.0 mi SW 13.8 mph - N/A   Clear
1:56 AM 70.0 °F 37.9 °F 31% 29.96 in 10.0 mi SW 10.4 mph - N/A   Clear
2:56 AM 68.0 °F 34.0 °F 28% 29.97 in 10.0 mi WSW 3.5 mph - N/A   Clear
3:56 AM 66.9 °F 39.0 °F 36% 29.97 in 10.0 mi SW 10.4 mph - N/A   Clear
4:56 AM 66.9 °F 37.9 °F 34% 29.96 in 10.0 mi SW 11.5 mph - N/A   Clear
5:56 AM 66.0 °F 37.9 °F 36% 29.98 in 10.0 mi SW 13.8 mph - N/A   Clear
6:56 AM 68.0 °F 39.0 °F 35% 29.99 in 10.0 mi WSW 11.5 mph - N/A   Clear
7:56 AM 73.9 °F 39.0 °F 28% 30.00 in 10.0 mi WSW 12.7 mph - N/A   Clear
8:56 AM 79.0 °F 39.9 °F 25% 30.00 in 10.0 mi WSW 17.3 mph 27.6 mph N/A   Clear
9:56 AM 81.0 °F 36.0 °F 20% 30.00 in 10.0 mi WSW 19.6 mph 26.5 mph N/A   Clear
10:56 AM 84.9 °F 33.1 °F 16% 29.99 in 10.0 mi WSW 20.7 mph 26.5 mph N/A   Clear
11:56 AM 89.1 °F 27.0 °F 11% 29.98 in 10.0 mi WSW 20.7 mph 27.6 mph N/A   Clear
12:56 PM 91.0 °F 19.9 °F 7% 29.97 in 10.0 mi WSW 21.9 mph 28.8 mph N/A   Clear
1:56 PM 91.9 °F 21.9 °F 8% 29.96 in 10.0 mi SW 24.2 mph 32.2 mph N/A   Clear
2:56 PM 91.0 °F 26.1 °F 10% 29.95 in 10.0 mi WSW 21.9 mph 28.8 mph N/A   Clear
3:56 PM 90.0 °F 28.9 °F 11% 29.93 in 10.0 mi WSW 19.6 mph 27.6 mph N/A   Clear
4:56 PM 89.1 °F 28.9 °F 12% 29.93 in 10.0 mi WSW 18.4 mph 27.6 mph N/A   Clear
5:56 PM 86.0 °F 28.9 °F 13% 29.94 in 10.0 mi SW 18.4 mph 26.5 mph N/A   Clear
6:56 PM 82.9 °F 30.9 °F 15% 29.94 in 10.0 mi WSW 19.6 mph - N/A   Clear
7:56 PM 77.0 °F 36.0 °F 23% 29.96 in 10.0 mi WSW 13.8 mph - N/A   Clear
8:56 PM 73.0 °F 44.1 °F 35% 29.96 in 10.0 mi SW 11.5 mph - N/A   Clear
9:56 PM 72.0 °F 42.1 °F 34% 29.97 in 10.0 mi WSW 10.4 mph - N/A   Clear
10:56 PM 72.0 °F 41.0 °F 33% 29.96 in 10.0 mi WSW 11.5 mph - N/A   Clear
11:56 PM 71.1 °F 41.0 °F 34% 29.96 in 10.0 mi WSW 12.7 mph - N/A   Clear